Preview of NWS' New Version of Forecast
This preview is not operational and should not be used for support decisions.

Regional Weather Roundup (RWR)

Issued by Philadelphia/Mt Holly (PHI)

                            
000
ASUS41 KPHI 211712
RWRPHI

REGIONAL WEATHER ROUNDUP
NATIONAL WEATHER SERVICE MOUNT HOLLY NJ
100 PM EDT THU MAR 21 2019

NOTE:  "FAIR" INDICATES FEW OR NO CLOUDS BELOW 12,000 FEET WITH NO
SIGNIFICANT WEATHER AND/OR OBSTRUCTIONS TO VISIBILITY.

 * = STATION DOES NOT REPORT PRECIPITATION (E.G. RAIN, SNOW, ETC.) 
        OR FOG.

NJZ015>026-211800-
SOUTHERN NEW JERSEY
  
CITY           SKY/WX    TMP DP  RH WIND       PRES   REMARKS
POMONA         LGT RAIN  49  48  97 E16G29    29.94F FOG              
WILDWOOD*      LGT RAIN  49  47  93 E17G25    29.90F                  
MILLVILLE      LGT RAIN  50  49  96 SE14G23   29.91F FOG              
MOUNT HOLLY    LGT RAIN  50  47  89 E6        29.95F                  
TRENTON        LGT RAIN  46  45  96 E10       29.96F FOG              

$$
NJZ001>014-211800-
NORTHERN NEW JERSEY
  
CITY           SKY/WX    TMP DP  RH WIND       PRES   REMARKS
SUSSEX         LGT RAIN  43  42  97 NE6       30.02F                  
ANDOVER*         N/A     44  40  85 VRB3      30.00F                  
MORRISTOWN     LGT RAIN  46  45  93 E9        30.03F                  
NEWARK         LGT RAIN  48  45  89 NE7       30.03F FOG              
TETERBORO      DRIZZLE   46  42  86 E7        30.03F                  
CALDWELL       LGT RAIN  45  44  97 E7        30.04F FOG              
SOMERVILLE     RAIN      48  46  93 E10G22    29.97F FOG              
ALLAIRE*       CLOUDY    45  44  97 E9        30.00F                  
TOMS RIVER*    CLOUDY    50  47  89 SE13G22   29.97F                  

$$
PAZ043-044-047-054-055-060>062-066>071-211800-
EASTERN PENNSYLVANIA
  
CITY           SKY/WX    TMP DP  RH WIND       PRES   REMARKS
PHILADELPHIA   LGT RAIN  50  47  89 E12       29.93F                  
NORTH PHILA    LGT RAIN  50  46  86 E14       29.96F FOG              
BLUE BELL*     CLOUDY    45  45 100 E10G20    29.94F                  
DOYLESTOWN     LGT RAIN  46  44  93 VRB7      29.94F                  
QUAKERTOWN*    CLOUDY    45  46 100 E15       29.94F FOG              
PERKASIE*      LGT RAIN  45  45 100 E7G20     29.95F                  
POTTSTOWN      LGT RAIN  45  45 100 E6        29.94F FOG              
LANCASTER      RAIN      45  43  93 NE14      29.92F FOG              
COATESVILLE    LGT RAIN  45  45 100 NE5       29.93F                  
READING        RAIN      44  44 100 N6        29.93F FOG              
ALLENTOWN      LGT RAIN  47  42  83 E14       29.95F                  
MOUNT POCONO   RAIN      36  36 100 E9G16     29.95F VSB 1   WCI  29  
HAZLETON       RAIN      41  37  87 E9        29.95F                  
LEHIGHTON      RAIN      43  41  93 NE6       29.96F                  
WILKES BARRE   LGT RAIN  42  40  92 NE7       29.97F FOG              

$$
DEZALL-MDZ008-012-015-019-020-211800-
DELAWARE AND EASTERN MARYLAND
  
CITY           SKY/WX    TMP DP  RH WIND       PRES   REMARKS
WILMINGTON     HVY RAIN  49  48  97 NW5       29.93S FOG              
GEORGETOWN     LGT RAIN  54  50  86 SE12      29.86F                  
EASTON         LGT RAIN  52  52 100 NE9       29.87F                  
PATUXENT       LGT RAIN  52  52 100 E14       29.80F FOG              
OCEAN CITY       N/A    N/A N/A N/A MISG      29.87F                  
WALLOPS ISLAND LGT RAIN  55  53  93 SE22G32   29.84F FOG              
CAMBRIDGE      PTSUNNY   54  52  94 E9        29.83F                  
SALISBURY      LGT RAIN  55  54  96 SE16      29.83F                  

$$
PAZ001-021-NYZ056-072-MDZ011-DCZ001-211800-
OTHER NEARBY LOCATIONS
  
CITY           SKY/WX    TMP DP  RH WIND       PRES   REMARKS
HARRISBURG     LGT RAIN  43  41  93 VRB3      29.92F FOG              
STATE COLLEGE  DRIZZLE   39  37  93 NE5       29.92F                  
WILLIAMSPORT   CLOUDY    43  40  89 NE6       29.95F                  
BINGHAMTON     CLOUDY    41  33  73 SE12      29.95F                  
NEW YORK CITY  LGT RAIN  45  42  89 VRB6G17   30.05F FOG              
BALTIMORE      LGT RAIN  47  46  97 VRB7G17   29.86F FOG              
WASHINGTON DC  LGT RAIN  48  44  86 NE14      29.84F                  

$$